Location: Alberta Star Party
(51.6612°N, 112.9089°W)
Time: 08:43:42
(UTC-06:00)

AO-Echo - Visible Passes

Search period start: 20 September 2018 00:00
Search period end: 30 September 2018 00:00
Orbit: 693 x 811 km, 98.4° (Epoch: 20 September)

Date Brightness Start Highest point End Pass type
(mag) Time Alt. Az. Time Alt. Az. Time Alt. Az.
20 Sep ? 02:00:09 10° NNE 02:02:33 22° NE 02:02:33 22° NE visible
20 Sep ? 03:38:36 10° N 03:42:28 43° NNW 03:42:28 43° NNW visible
20 Sep ? 05:19:36 10° NNW 05:21:20 12° NW 05:22:23 11° WNW visible
21 Sep ? 01:20:53 10° NE 01:21:26 11° ENE 01:21:26 11° ENE visible
21 Sep ? 02:57:55 10° NNE 03:01:21 42° NNE 03:01:21 42° NNE visible
21 Sep ? 04:37:33 10° N 04:41:17 21° NW 04:41:17 21° NW visible
22 Sep ? 02:17:34 10° NNE 02:20:15 27° NE 02:20:15 27° NE visible
22 Sep ? 03:56:24 10° N 04:00:10 35° NW 04:00:10 35° NW visible
23 Sep ? 01:37:47 10° NE 01:39:08 15° NE 01:39:08 15° NE visible
23 Sep ? 03:15:36 10° NNE 03:19:03 42° N 03:19:03 42° N visible
23 Sep ? 04:55:39 10° NNW 04:58:50 16° NW 04:58:58 16° NW visible
24 Sep ? 02:35:06 10° NNE 02:37:56 31° NE 02:37:56 31° NE visible
24 Sep ? 04:14:16 10° N 04:17:52 28° NW 04:17:52 28° NW visible
25 Sep ? 01:55:01 10° NE 01:56:49 18° NE 01:56:49 18° NE visible
25 Sep ? 03:33:21 10° N 03:36:45 38° NNW 03:36:45 38° NNW visible
25 Sep ? 05:13:59 10° NNW 05:16:13 13° NW 05:16:40 13° NW visible
26 Sep ? 02:52:42 10° NNE 02:55:38 34° NNE 02:55:38 34° NNE visible
26 Sep ? 04:32:13 10° N 04:35:33 22° NW 04:35:33 22° NW visible
27 Sep ? 02:12:24 10° NNE 02:14:31 22° NE 02:14:31 22° NE visible
27 Sep ? 03:51:08 10° N 03:54:26 33° NNW 03:54:26 33° NNW visible
28 Sep ? 01:32:44 10° NE 01:33:24 12° NE 01:33:24 12° NE visible
28 Sep ? 03:10:22 10° NNE 03:13:19 34° N 03:13:19 34° N visible
28 Sep ? 04:50:16 10° NNW 04:53:14 18° NW 04:53:14 18° NW visible
29 Sep ? 02:29:55 10° NNE 02:32:12 25° NE 02:32:12 25° NE visible
29 Sep ? 04:08:59 10° N 04:12:07 27° NNW 04:12:07 27° NNW visible
